sat.trackr.live / text

‹ back to catalog

STARLINK-11428 [DTC]

NORAD 62417 · 2024-249J

PAYLOAD ACTIVE UNKNOWN

§ Identity

Operator
Country
US
Launch date
2024-12-23
Launch site
AFETR
Launch vehicle
Mass (kg)
RCS (m²)

Purposes: comms

External: N2YO · Heavens-Above · Gunter

§ Orbital elements

Epoch: 2026-09-21T17:56:18.028032Z

Period
91.67 min
Inclination
42.9997°
Eccentricity
0.0001940
Mean motion
15.70832957 rev/d
Perigee alt
355.2 km
Apogee alt
357.8 km
Semi-major
6,734.7 km
B*
1.0344e-3
RAAN
66.0495°
Arg perigee
274.4196°
Mean anomaly
85.6450°
Rev number
10,031

§ Raw data

STARLINK-11428 [DTC]1 62417U 24249J   26264.74743088  .00134406  00000+0  10344-2 0  99932 62417  42.9997  66.0495 0001940 274.4196  85.6450 15.70832957100319

JSON: /api/v1/satellites/62417 · /tle

For live sub-satellite position, see the globe view (requires WebGL).

§ Visibility from observer

Set your observer location to see the next 7 days of passes ≥ 10°. The values pass through the URL so the page stays shareable.

No JS? Fill the form by hand. The geolocation button needs JavaScript.